Location: Rounton
(54.4000°N, 1.3500°W)
Time: 06:15:13
(UTC+00:00)

SR - Pass Details

Date: 03 December 2021
Orbit: 582 x 872 km, 66.7° (Epoch: 23 January)

Event Time Altitude Azimuth Distance (km) Brightness Sun altitude
Exits shadow 05:41:23 18° 350° (N) 1,480 ? -19.8°
Maximum altitude 05:43:04 22° 22° (NNE) 1,305 ? -19.6°
Drops below altitude 10° 05:46:28 10° 74° (ENE) 1,937 ? -19.1°
Sets 05:49:10 0° 90° (E) 2,867 ? -18.7°
